Regional Weather Roundup
Issued by NWS

Home | Current Version | Previous Version | Text Only | Print | Product List | Glossary Off
Versions: 1 2 3 4 5 6 7 8 9 10 11 12 13 14 15 16 17 18 19 20 21 22 23 24 25 26 27 28 29 30 31 32 33 34 35 36 37 38 39 40 41 42 43 44 45 46 47 48 49 50

724
ASUS43 KLMK 230602
RWRKY
KENTUCKY REGIONAL WEATHER ROUNDUP
NATIONAL WEATHER SERVICE LOUISVILLE KY
200 AM EDT THU MAR 23 2017

NOTE "FAIR" INDICATES FEW OR NO CLOUDS BELOW 12,000 FEET
WITH NO SIGNIFICANT WEATHER AND/OR OBSTRUCTIONS TO VISIBILITY.

KYZ001>023-026-027-061>063-070>075-230700-
WESTERN AND SOUTH CENTRAL KENTUCKY

CITY           SKY/WX    TMP DP  RH WIND       PRES   REMARKS
PADUCAH        CLOUDY    42  24  49 E7        30.33F
HENDERSON      CLEAR     39  19  45 E8        30.38S WCI  34
OWENSBORO      CLEAR     40  20  44 E10       30.39F WCI  33
HOPKINSVILLE   CLEAR     40  23  50 E7        30.34F
BOWLING GREEN  CLEAR     36  22  56 NE7       30.37F WCI  30
GLASGOW        NOT AVBL
$$

KYZ024-025-028>034-038-045-046-053-230700-
NORTH CENTRAL KENTUCKY

CITY           SKY/WX    TMP DP  RH WIND       PRES   REMARKS
LOUISVILLE/SDF MOCLDY    36  18  48 E5        30.42F WCI  32
LOUISVILLE/LOU CLEAR     36  20  52 E7        30.42F WCI  30
FORT KNOX      MOCLDY    35  20  53 NE10      30.38F WCI  27
$$

KYZ035>037-039>044-047>052-055>060-089>105-230700-
NORTHEAST KENTUCKY

CITY           SKY/WX    TMP DP  RH WIND       PRES   REMARKS
LEXINGTON      CLEAR     31  19  61 NE12      30.41F WCI  22
COVINGTON      PTCLDY    32  19  58 E12       30.45F WCI  23
FRANKFORT      CLEAR     33  17  51 E8        30.41F WCI  26
$$

KYZ054-064>069-076>088-106>120-230700-
SOUTHEAST KENTUCKY

CITY           SKY/WX    TMP DP  RH WIND       PRES   REMARKS
JACKSON        CLEAR     34  14  43 VRB3      30.39F
LONDON         PTCLDY    38  14  37 NE7       30.37F WCI  33
SOMERSET       CLEAR     36  18  48 E3        30.38F
MIDDLESBORO    CLOUDY    37  27  66 CALM      30.37F
MONTICELLO     PTCLDY    35  24  64 NW9       30.37F WCI  28
$$





USA.gov is the U.S. government's official web portal to all federal, state and local government web resources and services.